{"data":{"norad_id":58073,"epoch":"2026-05-25T04:12:42.264288Z","epoch_age_seconds":53200,"freshness":"FRESH","line1":"1 58073U 23159A   26145.17548917  .00000284  00000+0  12030-3 0  9995","line2":"2 58073  98.4987 171.3594 0000286 124.5123 235.6088 14.32713046136502","mean_motion":14.32713046,"eccentricity":2.86e-5,"inclination_deg":98.4987,"raan_deg":171.3594,"arg_perigee_deg":124.5123,"mean_anomaly_deg":235.6088,"bstar":0.0001203,"rev_number":13650,"period_min":100.50861224586,"perigee_km":782.47172445962,"apogee_km":782.88132299317,"semimajor_km":7160.8135237264,"source":"CELESTRAK","updated_at":"2026-05-25T13:38:00.470883Z"}}